AMC-14

Last updated on Wed Nov 20 2024 00:02:39 GMT+0000 (Coordinated Universal Time)

1 32708U 08011A 24323.86925527 .00000063 00000+0 00000+0 0 9995 2 32708 23.2927 27.4436 0035472 352.9474 8.4344 1.00272452 62406
UTC large
Height (km)
Speed (km/s)
/
Latitude / Longitude
Inclination (degrees)
Orbital Period (minutes)
Azimuth
Elevation
Range (km)
Doppler Factor

Next 0 passes for location: London (51.5072 / 0.1276)

Sorry there are no passes over London.